TJS-3 (43874 NORAD) Tracking and Keplerian Element Data

This shows tracking and keplerian element data for the satellite.

Feedback or suggestion? Click here.




ElementValue
Catalog43874
NameTJS-3
Epoch Orbit210
Epoch Day193.89760515
Epoch Year2019
RAAN222.8596
Inclination0.0504
Eccentricity0.000332
Argument of Perigee325.6221
Mean Anonmoly238.1663
Mean Motion1.00270382
Decay Rate-9E-08
L11 43874U 18110A 19193.89760515 -.00000009 00000-0 00000-0 0 9991
L22 43874 0.0504 222.8596 0003320 325.6221 238.1663 1.00270382 2105

Live tracking and technical data element details for TJS-3 (NORAD 43874). TJS-3 can be tracked NOW for your location showing map with azimuth and elevation plus other details from your city location.

Track the satellite on the map from your city or location and see movement details for azimuth, elevation, latitude, longitude, range, height, and movement on the map or in text.







IsCatalogInMostPopularTable: catalog: 43874, numindb: 75
Update: records affected: 1



GetName: 43874 TJS-3

Hit Count: updated at: Mon, 15 Jul 2019 22:22:10 GMT